Wind_Speed
42 41 42 42 44 46 47 45 45 41 37 34 27 22 22 22 21 21 22 22 23 23 23 23 23 23 22 21 20 19 19 18 17 16 16 16 15 15 16 17 18 20 21
41 41 40 42 43 44 44 43 42 39 35 33 25 21 21 21 21 21 21 23 24 25 25 25 24 23 23 22 21 21 21 20 19 18 18 18 18 17 18 18 20 21 22
37 38 39 41 42 42 41 41 39 37 35 31 27 25 24 22 21 21 21 22 24 25 26 25 25 25 25 24 23 23 23 23 22 21 20 20 19 20 21 21 21 22 23
35 37 38 39 40 40 40 39 37 36 34 32 29 27 27 25 23 23 23 23 24 24 25 26 26 26 26 26 26 25 25 25 25 24 23 22 21 21 22 24 24 23 24
34 35 36 37 38 38 39 39 37 36 35 33 32 31 29 28 27 27 26 25 25 24 25 26 26 26 28 28 28 28 27 27 27 26 25 25 24 23 22 23 26 26 26
34 34 35 37 38 40 42 41 40 38 37 37 35 34 33 33 32 32 32 31 30 29 29 28 28 29 30 31 31 31 30 29 29 28 28 27 27 26 25 24 25 27 28
33 34 36 38 40 43 44 44 44 43 43 42 42 41 40 40 39 39 39 38 37 36 34 33 32 32 33 33 34 34 33 32 32 31 30 30 29 29 28 27 25 25 27
31 33 36 40 43 45 46 47 48 49 49 49 48 48 47 46 45 45 44 44 43 43 42 41 38 38 38 38 38 38 37 36 35 34 33 32 32 31 30 29 27 25 26
36 39 42 46 48 50 52 53 53 53 53 53 53 53 52 52 52 51 50 50 49 48 48 47 46 45 44 44 43 42 41 40 38 37 35 34 34 33 33 31 30 27 25
45 47 49 52 54 56 58 58 59 59 59 59 59 58 57 57 56 56 56 55 55 54 53 52 51 51 50 49 49 48 46 44 42 41 39 37 36 35 34 33 31 29 26
49 51 53 55 56 58 60 62 64 65 65 65 65 65 64 63 62 61 60 60 59 59 58 58 57 56 55 54 53 52 51 49 47 45 43 41 39 36 35 33 32 31 28
53 55 57 59 61 63 65 67 68 69 70 71 71 69 69 67 66 65 64 64 64 64 63 63 62 61 59 58 57 55 54 52 50 48 46 44 41 39 37 35 33 32 29
57 60 62 65 67 69 70 72 73 73 72 71 68 65 63 62 61 61 61 62 62 63 65 66 66 65 64 62 60 58 56 54 51 49 47 46 43 40 38 36 34 33 30
61 64 66 69 71 71 71 70 68 65 63 61 58 55 52 50 48 48 49 51 53 56 60 63 65 67 67 66 64 62 59 56 53 50 48 46 44 41 39 37 35 33 30
64 67 69 70 69 68 65 62 58 55 51 48 45 43 41 40 39 39 39 40 41 44 48 52 56 60 63 65 67 66 63 59 55 52 49 46 44 41 39 38 36 34 31
66 68 68 66 64 61 56 52 48 45 43 41 40 40 40 39 38 36 35 34 34 35 37 40 44 48 53 57 60 63 64 63 59 55 51 47 45 42 40 38 35 33 31
66 65 62 60 56 51 47 45 44 43 44 44 44 43 43 41 39 38 36 34 33 32 32 32 34 37 41 45 50 54 59 61 61 59 54 49 46 44 41 38 35 33 30
61 58 55 51 48 46 46 47 47 48 48 47 47 47 46 45 43 41 39 37 35 33 31 30 30 31 33 36 40 44 49 54 58 59 57 53 48 45 42 39 36 33 30
56 53 51 50 49 49 50 51 51 51 51 50 49 48 47 46 45 43 41 39 37 35 33 31 29 29 29 30 32 36 39 45 51 55 56 54 50 46 43 40 36 33 30
53 52 51 51 51 52 53 53 53 53 52 52 51 50 49 47 46 45 43 41 40 38 35 33 31 29 27 27 27 29 32 37 43 49 51 51 50 47 44 40 36 33 29
53 52 52 52 53 53 53 53 51 51 51 50 49 48 48 48 47 46 44 42 40 38 36 33 31 29 27 25 25 25 27 31 37 43 45 47 48 46 44 40 36 32 28
52 52 52 52 53 53 52 50 49 48 47 46 45 44 43 42 42 42 41 40 39 38 36 34 31 29 27 26 24 23 24 26 33 41 43 44 45 45 43 40 36 32 28
52 52 52 52 51 51 50 48 46 46 45 43 41 39 37 36 36 37 37 37 37 36 34 33 31 29 27 26 24 22 23 26 32 41 43 44 43 43 42 39 35 31 27
51 51 51 51 49 48 47 45 43 42 40 36 33 32 30 29 29 30 30 31 32 32 32 31 30 28 26 24 23 22 23 26 32 41 45 46 43 41 40 37 34 30 27
51 51 52 50 48 48 46 44 41 39 35 31 28 25 23 21 21 21 22 23 26 28 27 28 27 26 24 23 22 22 22 27 33 40 47 46 43 41 38 36 32 29 26
50 51 51 49 48 47 45 43 39 36 32 28 24 21 17 14 12 12 15 18 20 22 23 24 24 23 22 21 20 19 19 26 33 40 45 44 41 39 36 33 30 28 26
Wind_Direction
286 290 293 295 297 299 300 301 298 298 297 298 286 278 277 279 280 281 282 283 286 283 277 273 268 264 261 258 256 256 255 254 255 259 265 272 279 286 291 295 298 297 294
284 288 293 297 297 301 304 302 303 301 303 303 297 290 291 291 285 286 284 282 282 281 276 272 265 260 257 254 252 253 255 255 256 259 265 272 279 284 289 295 298 299 297
284 288 293 296 297 300 304 304 306 305 305 308 306 300 295 291 290 288 288 284 281 277 272 267 262 257 254 253 252 254 255 256 257 258 263 269 275 283 289 294 297 299 299
282 287 290 292 294 297 300 303 305 306 306 306 303 298 293 292 290 290 286 281 280 277 269 264 260 257 253 252 253 254 256 258 260 261 262 266 270 276 286 293 297 299 299
279 282 285 289 292 296 300 302 303 304 304 303 301 298 293 290 287 285 283 279 277 275 270 264 260 258 255 253 254 254 256 258 261 263 266 268 271 274 279 287 295 299 300
278 279 282 286 292 296 299 301 302 303 301 299 297 294 290 288 285 282 279 276 273 271 270 265 259 257 256 255 256 256 257 258 260 263 266 270 273 277 279 283 289 296 299
284 281 282 287 293 296 299 300 301 300 299 297 294 290 287 284 282 279 277 275 271 268 265 263 259 257 256 255 256 257 258 259 261 263 266 269 272 276 279 282 285 291 295
294 290 287 289 292 294 297 298 299 298 296 294 291 288 286 283 280 278 275 273 270 267 264 261 259 256 255 255 255 256 258 260 262 263 265 268 271 274 278 281 284 288 292
305 301 298 297 297 298 298 298 297 295 293 291 289 286 284 282 279 277 274 272 269 267 264 262 259 256 254 254 253 254 256 259 261 263 264 267 269 272 275 279 283 285 288
309 307 305 305 303 302 301 300 297 295 293 290 288 286 283 280 278 275 273 270 268 266 264 262 260 258 256 254 253 253 254 256 258 261 262 264 267 269 272 275 280 283 285
310 309 307 306 304 303 301 300 298 296 294 292 289 287 284 280 277 274 271 269 267 265 263 261 260 258 257 255 254 253 254 254 256 257 260 262 264 265 268 271 276 280 282
313 311 309 307 305 304 302 300 298 296 294 292 290 288 286 283 280 276 272 269 266 263 261 260 259 258 257 256 255 254 253 253 253 255 256 258 261 262 263 266 271 275 278
313 312 310 308 306 304 302 300 299 297 296 294 292 290 287 284 281 277 273 269 265 262 259 257 256 255 255 254 254 253 252 252 252 252 253 254 257 258 259 261 266 269 273
313 312 310 308 305 304 302 301 300 299 297 296 294 292 290 287 284 281 276 271 266 261 258 256 254 252 252 251 251 251 250 250 249 250 250 251 252 254 255 257 261 264 267
313 310 308 307 305 304 303 302 300 299 299 297 296 294 292 290 288 286 282 277 271 266 261 257 253 251 250 249 248 248 247 247 246 246 247 247 247 249 250 253 256 259 262
312 310 309 308 306 305 304 302 301 299 298 296 294 293 291 290 288 286 283 280 277 272 266 261 257 253 251 249 247 246 245 244 243 242 243 243 243 244 246 249 252 254 257
314 312 310 310 309 308 306 303 300 298 295 293 290 288 286 285 284 282 281 279 277 275 271 266 261 256 253 251 248 246 244 242 240 239 238 239 239 240 242 244 245 248 253
315 315 314 313 311 308 305 302 300 297 294 291 289 286 283 280 279 277 275 274 273 271 270 267 264 259 256 253 250 247 244 240 238 236 235 235 235 236 238 238 239 243 249
320 319 318 315 312 308 305 302 299 297 294 290 287 284 281 278 275 273 271 269 268 268 266 264 264 261 257 255 252 249 245 240 235 232 230 230 231 232 233 232 234 239 244
323 321 319 316 313 311 308 305 302 299 295 292 288 284 280 276 272 269 267 265 263 263 262 261 261 259 256 254 253 250 246 239 231 226 223 223 224 226 227 227 230 233 238
325 323 321 319 317 315 313 310 306 303 300 296 291 285 280 275 271 267 264 261 259 257 256 255 254 254 252 250 250 250 245 237 224 216 214 214 216 219 221 223 225 228 232
328 326 325 323 321 319 317 314 311 308 305 300 295 289 284 277 271 265 260 257 254 252 251 249 248 248 246 244 247 248 240 230 216 206 203 204 209 212 216 217 219 222 226
333 332 330 328 326 324 322 319 316 313 309 305 299 293 287 280 272 264 258 253 250 248 245 243 242 242 241 240 241 241 235 223 209 198 193 194 199 205 209 211 214 217 220
339 337 336 335 333 331 329 327 325 322 319 315 308 301 293 283 274 264 255 250 245 241 238 236 235 235 236 234 233 234 234 222 206 194 187 187 193 198 203 206 208 211 213
344 343 341 341 340 339 337 335 332 331 329 325 319 312 303 290 275 261 249 241 236 231 228 226 225 226 227 226 227 229 232 219 203 194 186 184 188 193 197 199 202 205 208
348 348 348 348 347 346 345 343 342 341 338 334 329 325 317 304 282 258 240 228 223 219 215 214 214 216 217 218 221 221 223 211 199 191 181 178 181 186 190 193 196 198 200
Height
5865 5863 5861 5858 5853 5849 5843 5837 5831 5827 5821 5821 5821 5820 5820 5821 5821 5822 5822 5821 5821 5821 5821 5821 5821 5821 5821 5822 5822 5823 5824 5825 5826 5826 5826 5826 5825 5824 5823 5821 5819 5818 5817
5859 5857 5854 5850 5846 5841 5835 5831 5825 5822 5819 5818 5815 5814 5816 5816 5816 5817 5816 5816 5815 5815 5815 5815 5815 5815 5816 5816 5817 5817 5818 5819 5820 5821 5821 5821 5820 5819 5818 5816 5814 5812 5810
5853 5850 5847 5843 5840 5836 5832 5827 5822 5819 5817 5814 5812 5811 5811 5811 5811 5811 5811 5810 5809 5808 5808 5808 5808 5808 5809 5810 5810 5811 5812 5813 5814 5815 5815 5815 5815 5814 5812 5810 5808 5806 5804
5846 5843 5840 5836 5833 5829 5825 5821 5818 5815 5811 5809 5807 5806 5805 5805 5805 5804 5804 5804 5802 5801 5801 5800 5800 5801 5801 5802 5803 5804 5805 5806 5807 5807 5808 5809 5809 5809 5807 5804 5802 5800 5797
5839 5836 5832 5829 5825 5821 5818 5814 5811 5808 5805 5803 5801 5799 5798 5797 5797 5796 5796 5796 5795 5794 5793 5792 5792 5793 5793 5794 5795 5796 5796 5798 5799 5799 5800 5800 5801 5802 5802 5800 5796 5793 5791
5831 5828 5825 5821 5817 5813 5809 5806 5802 5800 5797 5795 5793 5791 5789 5788 5787 5787 5787 5787 5786 5785 5785 5784 5784 5784 5784 5785 5785 5786 5788 5789 5790 5791 5791 5792 5793 5793 5794 5794 5791 5788 5784
5822 5819 5817 5813 5809 5804 5800 5796 5792 5789 5786 5784 5782 5781 5779 5778 5777 5776 5775 5775 5775 5774 5774 5775 5775 5775 5775 5775 5776 5777 5778 5779 5781 5782 5783 5783 5784 5785 5785 5785 5785 5783 5779
5814 5811 5808 5804 5799 5794 5790 5785 5780 5776 5773 5770 5768 5767 5765 5764 5763 5762 5762 5761 5761 5761 5761 5761 5762 5763 5764 5765 5766 5767 5768 5769 5771 5772 5773 5774 5775 5776 5776 5777 5777 5776 5773
5805 5801 5797 5791 5786 5780 5775 5771 5766 5762 5758 5754 5751 5750 5748 5747 5746 5745 5745 5745 5745 5745 5746 5746 5747 5749 5750 5752 5753 5755 5757 5758 5760 5762 5763 5765 5766 5767 5767 5768 5768 5768 5767
5794 5788 5783 5777 5770 5764 5758 5752 5748 5744 5740 5736 5733 5731 5728 5727 5726 5725 5725 5726 5726 5727 5728 5729 5731 5733 5735 5737 5739 5742 5744 5746 5749 5751 5753 5755 5756 5758 5759 5759 5759 5759 5759
5783 5777 5771 5764 5757 5750 5743 5735 5729 5723 5718 5714 5710 5708 5705 5704 5703 5703 5703 5704 5705 5706 5708 5710 5712 5715 5717 5720 5723 5726 5730 5733 5736 5739 5741 5744 5746 5748 5749 5750 5751 5750 5750
5770 5764 5757 5749 5741 5733 5726 5718 5710 5704 5697 5691 5687 5683 5679 5677 5676 5676 5677 5679 5681 5683 5686 5688 5691 5694 5698 5701 5705 5709 5713 5717 5722 5725 5729 5732 5735 5738 5740 5741 5742 5742 5742
5758 5750 5741 5733 5724 5716 5707 5699 5690 5683 5676 5669 5664 5660 5656 5653 5651 5650 5650 5652 5655 5658 5661 5664 5668 5673 5677 5681 5686 5691 5696 5701 5706 5711 5715 5720 5724 5727 5730 5732 5734 5734 5735
5745 5736 5726 5717 5708 5698 5689 5680 5672 5663 5656 5650 5645 5640 5636 5633 5631 5629 5628 5629 5630 5632 5635 5639 5644 5649 5654 5659 5665 5671 5678 5684 5690 5696 5702 5707 5712 5716 5719 5722 5724 5726 5727
5732 5722 5711 5701 5691 5681 5672 5663 5655 5648 5641 5635 5630 5626 5622 5619 5616 5614 5612 5611 5611 5612 5614 5617 5620 5625 5630 5637 5643 5650 5658 5666 5674 5681 5687 5693 5699 5704 5708 5712 5714 5716 5718
5718 5706 5694 5683 5673 5664 5655 5648 5641 5634 5628 5623 5619 5615 5611 5607 5604 5602 5599 5598 5597 5597 5598 5599 5602 5606 5610 5615 5621 5629 5637 5646 5655 5664 5672 5679 5686 5691 5697 5701 5704 5707 5710
5700 5689 5677 5667 5657 5648 5641 5634 5628 5622 5616 5611 5607 5602 5598 5595 5592 5590 5588 5587 5586 5586 5586 5587 5588 5591 5594 5598 5603 5609 5617 5626 5636 5646 5656 5664 5672 5679 5685 5690 5694 5698 5701
5686 5674 5663 5653 5644 5636 5628 5621 5614 5608 5602 5596 5591 5587 5584 5581 5579 5577 5576 5575 5575 5575 5575 5576 5577 5579 5581 5583 5587 5592 5599 5607 5616 5627 5639 5649 5658 5666 5673 5679 5685 5689 5693
5670 5659 5649 5639 5631 5622 5613 5605 5598 5591 5584 5579 5574 5570 5567 5564 5563 5562 5562 5562 5562 5563 5564 5566 5567 5568 5570 5572 5575 5579 5584 5591 5599 5610 5621 5633 5644 5654 5662 5669 5675 5680 5684
5658 5647 5637 5626 5616 5607 5597 5588 5580 5572 5565 5559 5555 5551 5548 5546 5545 5545 5546 5547 5549 5550 5552 5554 5556 5558 5560 5562 5564 5568 5572 5578 5585 5595 5606 5619 5630 5640 5649 5658 5665 5671 5676
5648 5636 5624 5613 5602 5591 5580 5570 5561 5553 5546 5540 5534 5530 5527 5526 5526 5527 5529 5531 5534 5536 5540 5543 5546 5548 5551 5553 5556 5558 5561 5566 5572 5581 5593 5605 5617 5628 5638 5648 5656 5662 5668
5637 5624 5612 5601 5588 5576 5564 5555 5545 5536 5528 5521 5515 5511 5508 5506 5507 5508 5511 5514 5518 5522 5527 5531 5535 5539 5542 5545 5548 5550 5553 5556 5562 5571 5582 5594 5606 5617 5628 5638 5647 5654 5660
5627 5614 5601 5589 5576 5563 5551 5541 5531 5521 5513 5505 5499 5494 5491 5490 5490 5492 5495 5499 5504 5509 5514 5519 5524 5529 5533 5537 5540 5542 5545 5549 5554 5562 5573 5584 5597 5608 5619 5629 5638 5646 5652
5619 5606 5593 5580 5567 5554 5541 5529 5519 5508 5499 5492 5486 5481 5478 5476 5476 5477 5481 5485 5491 5496 5502 5508 5514 5520 5525 5529 5533 5536 5538 5541 5546 5553 5564 5576 5588 5600 5611 5622 5631 5639 5646
5613 5599 5585 5572 5559 5546 5533 5521 5510 5500 5491 5483 5477 5472 5468 5466 5466 5467 5470 5475 5480 5486 5493 5500 5506 5512 5518 5522 5526 5529 5532 5535 5539 5547 5557 5569 5582 5594 5605 5615 5625 5633 5640
5608 5595 5581 5567 5554 5541 5528 5516 5504 5494 5485 5478 5472 5467 5463 5461 5460 5461 5464 5468 5474 5480 5486 5493 5500 5506 5512 5516 5520 5524 5526 5529 5535 5543 5554 5566 5579 5591 5601 5611 5620 5628 5635